Change the Weather History Date:

Saturday, March 8, 2014

  Actual Average Record
Temperature  
Mean Temperature 48 °F -  
Max Temperature 59 °F 54 °F - ()
Min Temperature 37 °F 35 °F - ()
Degree Days  
Heating Degree Days 17    
Moisture  
Dew Point 36 °F    
Average Humidity 61    
Maximum Humidity 87    
Minimum Humidity 29    
Precipitation  
Precipitation 0.00 in 0.05 in - ()
Sea Level Pressure  
Sea Level Pressure 30.35 in    
Wind  
Wind Speed 7 mph ()    
Max Wind Speed 18 mph    
Max Gust Speed 28 mph    
Visibility 14.1 miles    
Events      
T = Trace of Precipitation, MM = Missing Value Source: Averaged Metar Reports

Daily Weather History Graph

Daily Weather History Graph

Search for Another Location

Airport or City:

Trip Planner

Search our weather history database for the weather conditions in past years. The results will help you decide how hot, cold, wet, or windy it might be!

Date:

Astronomy

Mar. 08, 2014 Rise Set
Actual Time 6:00 AM CET 5:28 PM CET
Civil Twilight 5:30 AM CET 5:59 PM CET
Nautical Twilight 4:54 AM CET 6:34 PM CET
Astronomical Twilight 4:18 AM CET 7:10 PM CET
Moon 10:01 AM CET (3/8) 12:36 AM CET (3/8)
Length of Visible Light 12h 28m
Length of Day
11h 27m
Waxing Crescent, 49% of the Moon is Illuminated
Mar 8
Waxing Crescent
Mar 8
First Quarter
Mar 16
Full
Mar 24
Last Quarter
Mar 30
New

Hourly Weather History & Observations

Time (CET) Temp. Windchill Dew Point Humidity Pressure Visibility Wind Dir Wind Speed Gust Speed Precip Events Conditions
12:00 AM 41 °F - 36 °F 74% 30.30 in - Calm Calm - -  
1:00 AM 42 °F - 36 °F 72% 30.30 in - NW 2.2 mph - -  
2:00 AM 41 °F - 35 °F 72% 30.30 in - North 4.5 mph - -  
3:00 AM 40 °F - 35 °F 75% 30.30 in - North 6.7 mph - -  
4:00 AM 38 °F - 34 °F 81% 30.31 in - NNE 6.7 mph - -  
5:00 AM 38 °F - 34 °F 81% 30.32 in - NNE 4.5 mph - -  
5:15 AM 37.4 °F 31.4 °F 33.8 °F 87% 30.30 in - NNE 8.1 mph - N/A   Clear
5:45 AM 37.4 °F 32.1 °F 33.8 °F 87% 30.33 in - NNE 6.9 mph - N/A   Clear
6:00 AM - - - N/A% - - NNE 8.1 mph - N/A   Clear
6:15 AM 37.4 °F 32.1 °F 33.8 °F 87% 30.33 in - NNE 6.9 mph - N/A   Clear
6:45 AM 37.4 °F 32.1 °F 33.8 °F 87% 30.33 in - NNE 6.9 mph - N/A   Clear
7:00 AM 38 °F - 34 °F 81% 30.35 in 12 mi NNE 6.7 mph - -   Partly Cloudy
7:15 AM 39.2 °F 35.0 °F 35.6 °F 87% 30.36 in - NNE 5.8 mph - N/A   Clear
7:45 AM 41.0 °F 34.7 °F 35.6 °F 81% 30.36 in - NNE 10.4 mph - N/A   Clear
8:00 AM 41 °F - 35 °F 71% 30.36 in 12 mi NNE 8.9 mph - -   Partly Cloudy
8:15 AM 42.8 °F 38.6 °F 35.6 °F 76% 30.36 in - NNE 6.9 mph - N/A   Clear
8:45 AM 44.6 °F 39.7 °F 35.6 °F 71% 30.36 in - NNE 9.2 mph - N/A   Clear
9:00 AM 44 °F - 36 °F 65% 30.38 in 16 mi NNE 8.9 mph - -   Partly Cloudy
9:00 AM - - - N/A% - - NE 8.1 mph - N/A   Clear
9:15 AM 48.2 °F - 37.4 °F 66% 30.36 in - NNE 8.1 mph - N/A   Clear
9:45 AM 50.0 °F - 37.4 °F 62% 30.36 in - NNE 6.9 mph - N/A   Clear
10:00 AM 50 °F - 38 °F 53% 30.36 in 16 mi NNE 6.7 mph - -   Partly Cloudy
10:15 AM 51.8 °F - 39.2 °F 62% 30.36 in - NNE 6.9 mph - N/A   Clear
10:45 AM 53.6 °F - 37.4 °F 54% 30.36 in - NE 9.2 mph - N/A   Clear
11:00 AM 53 °F - 38 °F 45% 30.35 in 16 mi NE 8.9 mph - -   Partly Cloudy
11:15 AM 55.4 °F - 39.2 °F 54% 30.36 in - North 6.9 mph - N/A   Clear
11:45 AM 57.2 °F - 39.2 °F 51% 30.36 in - North 9.2 mph - N/A   Clear
12:00 PM 57 °F - 38 °F 38% 30.35 in 19 mi North 8.9 mph - -   Partly Cloudy
12:00 PM - - - N/A% - - NNE 8.1 mph - N/A   Dust Whirls
12:15 PM 59.0 °F - 39.2 °F 48% 30.33 in 6.2 mi NNW 9.2 mph - N/A   Partly Cloudy
12:45 PM 57.2 °F - 39.2 °F 51% 30.33 in 6.2 mi NNW 13.8 mph - N/A   Partly Cloudy
1:00 PM 57 °F - 39 °F 40% 30.34 in 19 mi NNW 13.4 mph - -   Partly Cloudy
1:15 PM 59.0 °F - 37.4 °F 45% 30.33 in 6.2 mi NNW 12.7 mph - N/A   Partly Cloudy
1:45 PM 59.0 °F - 37.4 °F 45% 30.33 in 6.2 mi North 11.5 mph - N/A   Partly Cloudy
2:00 PM 60 °F - 38 °F 32% 30.33 in 19 mi North 11.2 mph - -   Partly Cloudy
2:15 PM 59.0 °F - 37.4 °F 45% 30.33 in - North 11.5 mph - N/A   Clear
2:45 PM 59.0 °F - 35.6 °F 42% 30.33 in - North 10.4 mph - N/A   Clear
3:00 PM 60 °F - 36 °F 29% 30.33 in 19 mi North 8.9 mph - -   Partly Cloudy
3:15 PM 59.0 °F - 35.6 °F 42% 30.33 in - North 15.0 mph - N/A   Clear
3:45 PM 59.0 °F - 33.8 °F 39% 30.33 in - NNE 13.8 mph - N/A   Clear
4:00 PM 58 °F - 35 °F 29% 30.33 in 19 mi NNE 13.4 mph - -   Partly Cloudy
4:15 PM 57.2 °F - 37.4 °F 48% 30.33 in - NNE 16.1 mph - N/A   Clear
4:45 PM 53.6 °F - 37.4 °F 54% 30.36 in - North 13.8 mph - N/A   Clear
5:00 PM 54 °F - 36 °F 40% 30.35 in 19 mi North 13.4 mph - -   Partly Cloudy
5:00 PM - - - N/A% - - North - - N/A   Unknown
6:00 PM 49 °F - 37 °F 53% 30.37 in - NE 11.2 mph - -  
7:00 PM 45 °F - 36 °F 60% 30.39 in - NNE 13.4 mph - -  
8:00 PM 43 °F - 35 °F 63% 30.39 in - NNE 15.7 mph - -  
8:28 PM 41.0 °F 32.8 °F 33.8 °F 76% 30.39 in - NNE 16.1 mph 27.6 mph N/A   Unknown
9:00 PM 41 °F - 34 °F 69% 30.40 in - NNE 17.9 mph - -  
10:00 PM 41 °F - 34 °F 69% 30.42 in - NNE 17.9 mph - -  
11:00 PM 41 °F - 34 °F 69% 30.43 in - NNE 17.9 mph - -